Temp
-11 -11 -10 -11 -11 -12 -12 -12 -11 -12 -12 -13 -12 -11 -11 -11 -10 -10 -9 -9 -8 -8 -8 -8 -8 -8 -6 -6 -6 -6 -6 -6 -8 -7 -7 -7 -8 -7 -7 -8 -10 -10 -9 -8
-12 -10 -11 -12 -13 -13 -13 -12 -12 -13 -13 -14 -13 -13 -13 -13 -11 -11 -10 -9 -9 -8 -8 -8 -8 -8 -7 -7 -6 -7 -7 -7 -8 -8 -8 -8 -10 -9 -9 -9 -9 -9 -9 -9
-13 -12 -13 -13 -13 -13 -13 -12 -13 -13 -14 -15 -14 -14 -14 -12 -13 -12 -10 -10 -9 -9 -9 -9 -8 -8 -7 -7 -7 -7 -7 -8 -8 -9 -9 -9 -10 -11 -10 -10 -9 -10 -10 -10
-14 -14 -14 -14 -13 -13 -13 -13 -13 -14 -14 -15 -15 -15 -13 -13 -13 -13 -12 -11 -10 -10 -10 -9 -9 -8 -7 -7 -7 -7 -9 -9 -9 -11 -8 -10 -11 -12 -12 -11 -11 -11 -10 -10
-12 -14 -14 -14 -13 -14 -13 -14 -14 -15 -14 -14 -15 -14 -13 -13 -13 -13 -12 -12 -11 -11 -11 -10 -9 -9 -8 -9 -10 -10 -10 -11 -11 -11 -13 -14 -13 -13 -13 -12 -12 -12 -11 -12
-15 -15 -15 -14 -14 -14 -14 -15 -15 -15 -15 -14 -14 -15 -13 -13 -13 -13 -13 -12 -12 -11 -11 -10 -10 -9 -9 -10 -10 -11 -11 -13 -13 -13 -14 -14 -15 -15 -14 -13 -13 -13 -13 -12
-16 -15 -15 -15 -15 -15 -16 -16 -16 -16 -15 -14 -14 -14 -13 -13 -14 -13 -13 -13 -14 -12 -11 -11 -10 -10 -12 -12 -12 -13 -13 -13 -13 -14 -14 -14 -15 -14 -14 -14 -14 -14 -14 -13
-16 -16 -15 -15 -15 -15 -16 -16 -15 -15 -15 -15 -14 -13 -13 -13 -14 -14 -13 -14 -14 -12 -12 -12 -12 -11 -12 -14 -14 -14 -13 -14 -14 -14 -14 -14 -14 -14 -14 -14 -14 -15 -16 -15
-18 -16 -16 -16 -16 -17 -17 -16 -15 -15 -15 -15 -15 -15 -14 -15 -15 -15 -14 -14 -14 -12 -12 -13 -12 -12 -13 -14 -14 -14 -14 -14 -14 -15 -15 -15 -15 -15 -15 -15 -15 -14 -15 -15
-17 -17 -17 -17 -16 -16 -16 -16 -16 -16 -15 -15 -15 -15 -15 -15 -14 -13 -14 -14 -14 -14 -13 -13 -13 -13 -13 -13 -13 -14 -15 -14 -14 -14 -14 -14 -14 -15 -15 -15 -15 -15 -15 -15
-17 -17 -16 -16 -16 -16 -16 -16 -16 -16 -16 -15 -15 -15 -15 -14 -14 -14 -14 -14 -14 -14 -13 -13 -13 -13 -14 -14 -15 -14 -14 -14 -14 -15 -15 -15 -15 -15 -15 -15 -15 -15 -15 -15
-16 -17 -16 -16 -15 -16 -16 -16 -16 -16 -16 -16 -15 -15 -14 -14 -14 -14 -13 -13 -13 -12 -14 -14 -14 -14 -14 -14 -14 -14 -14 -14 -14 -15 -15 -15 -15 -15 -15 -15 -14 -14 -15 -15
-17 -16 -16 -16 -16 -16 -15 -15 -16 -15 -15 -16 -16 -15 -15 -14 -14 -14 -14 -14 -13 -11 -13 -14 -13 -13 -14 -14 -14 -14 -14 -14 -14 -14 -14 -14 -15 -15 -15 -15 -15 -15 -15 -15
-16 -16 -16 -15 -14 -15 -15 -15 -16 -16 -15 -15 -16 -15 -15 -15 -14 -14 -14 -14 -14 -14 -14 -14 -14 -14 -14 -14 -13 -14 -14 -14 -14 -14 -14 -15 -15 -15 -15 -15 -15 -15 -14 -15
-15 -15 -15 -16 -16 -15 -15 -16 -16 -16 -15 -16 -16 -15 -15 -15 -14 -15 -15 -15 -15 -15 -14 -14 -15 -15 -14 -16 -14 -14 -15 -15 -15 -14 -14 -14 -14 -15 -14 -14 -15 -14 -14 -15
-16 -16 -16 -16 -16 -16 -16 -16 -16 -16 -15 -15 -15 -15 -15 -15 -14 -14 -14 -15 -15 -15 -14 -14 -14 -15 -15 -15 -14 -14 -14 -14 -14 -14 -14 -14 -14 -14 -15 -14 -14 -14 -14 -14
-16 -16 -16 -16 -16 -16 -16 -16 -16 -16 -15 -16 -16 -16 -16 -16 -16 -15 -14 -14 -14 -13 -14 -15 -15 -15 -15 -14 -14 -14 -14 -14 -14 -14 -14 -14 -14 -14 -14 -14 -14 -14 -13 -13
-15 -16 -16 -16 -16 -16 -16 -15 -15 -15 -16 -15 -15 -15 -15 -15 -15 -15 -14 -14 -14 -15 -15 -15 -15 -15 -15 -15 -14 -14 -14 -14 -14 -14 -14 -14 -14 -14 -14 -14 -13 -13 -13 -13
-15 -16 -16 -16 -15 -15 -16 -14 -14 -15 -15 -15 -14 -14 -15 -14 -14 -14 -15 -15 -15 -15 -15 -15 -15 -15 -15 -15 -15 -14 -14 -14 -14 -14 -14 -14 -14 -14 -14 -14 -14 -13 -13 -13
-15 -16 -16 -16 -16 -16 -16 -16 -15 -15 -16 -15 -15 -14 -14 -14 -15 -15 -16 -16 -16 -16 -15 -15 -15 -15 -15 -15 -15 -15 -15 -15 -15 -15 -15 -15 -15 -15 -15 -15 -14 -14 -14 -14
-16 -15 -16 -17 -16 -15 -15 -16 -15 -15 -15 -15 -15 -15 -15 -15 -15 -16 -16 -16 -15 -16 -16 -16 -16 -15 -15 -15 -15 -16 -16 -16 -15 -15 -16 -16 -16 -15 -15 -15 -15 -15 -14 -14
-16 -15 -16 -16 -15 -15 -16 -15 -15 -14 -15 -16 -16 -15 -15 -15 -16 -16 -16 -16 -16 -16 -15 -16 -16 -16 -16 -16 -16 -16 -16 -16 -16 -16 -16 -16 -16 -15 -15 -15 -15 -15 -14 -14
-16 -16 -16 -16 -16 -16 -16 -16 -15 -16 -16 -16 -16 -16 -16 -16 -16 -16 -16 -16 -16 -16 -16 -16 -16 -17 -17 -17 -16 -16 -16 -16 -16 -16 -16 -16 -16 -16 -15 -15 -15 -14 -14 -14
-16 -16 -16 -16 -16 -17 -17 -17 -16 -16 -17 -17 -17 -16 -16 -16 -17 -16 -16 -16 -16 -16 -16 -16 -16 -17 -17 -16 -16 -16 -16 -16 -16 -16 -16 -16 -16 -15 -15 -15 -15 -14 -14 -13
-17 -16 -17 -17 -17 -17 -17 -17 -16 -16 -16 -16 -16 -16 -16 -17 -17 -16 -16 -16 -16 -16 -16 -16 -16 -17 -17 -16 -16 -16 -16 -16 -16 -16 -16 -16 -16 -16 -15 -15 -14 -14 -14 -13
-18 -18 -17 -17 -17 -17 -17 -16 -16 -16 -17 -17 -17 -17 -17 -17 -17 -17 -16 -16 -16 -16 -16 -16 -17 -17 -17 -16 -16 -16 -16 -16 -16 -16 -16 -16 -16 -16 -15 -15 -14 -14 -13 -13
Height
5698 5702 5705 5711 5717 5722 5726 5729 5735 5739 5745 5745 5748 5752 5757 5763 5767 5770 5776 5779 5785 5791 5792 5794 5797 5804 5802 5801 5802 5803 5804 5806 5807 5815 5822 5827 5829 5830 5829 5827 5825 5827 5827 5830
5685 5689 5698 5704 5709 5712 5717 5721 5726 5731 5737 5741 5744 5746 5749 5752 5758 5762 5767 5771 5776 5780 5782 5784 5788 5792 5797 5794 5791 5792 5793 5794 5797 5803 5809 5812 5816 5820 5820 5819 5820 5817 5818 5818
5674 5687 5691 5693 5699 5702 5707 5711 5718 5726 5730 5735 5740 5741 5743 5749 5753 5755 5759 5763 5766 5772 5772 5774 5776 5784 5787 5786 5786 5784 5784 5783 5784 5788 5794 5799 5801 5807 5810 5810 5810 5810 5811 5810
5664 5671 5676 5681 5688 5694 5698 5706 5713 5719 5723 5727 5735 5735 5737 5746 5748 5750 5752 5756 5759 5762 5764 5766 5767 5772 5778 5778 5776 5775 5773 5773 5774 5777 5776 5778 5783 5787 5794 5796 5796 5798 5797 5793
5654 5662 5666 5671 5681 5686 5693 5701 5709 5714 5716 5722 5725 5729 5735 5739 5739 5743 5746 5751 5752 5754 5755 5757 5758 5762 5767 5770 5769 5768 5768 5766 5765 5766 5765 5767 5770 5773 5776 5781 5783 5784 5785 5785
5640 5648 5655 5666 5672 5679 5690 5696 5702 5708 5711 5712 5718 5722 5730 5732 5734 5737 5740 5743 5745 5746 5749 5750 5753 5754 5757 5758 5762 5764 5763 5764 5765 5765 5766 5765 5767 5768 5770 5772 5774 5773 5774 5776
5629 5635 5647 5656 5664 5673 5681 5687 5693 5698 5701 5703 5712 5717 5722 5729 5732 5732 5734 5737 5738 5738 5743 5745 5748 5750 5751 5753 5756 5758 5759 5759 5759 5759 5761 5762 5763 5767 5767 5766 5765 5763 5763 5766
5621 5628 5638 5648 5655 5665 5672 5679 5683 5687 5693 5702 5710 5711 5720 5726 5728 5730 5731 5732 5733 5736 5739 5741 5743 5748 5749 5752 5755 5756 5757 5757 5757 5757 5757 5758 5758 5758 5760 5761 5759 5758 5759 5759
5614 5624 5635 5641 5650 5658 5667 5670 5683 5689 5695 5699 5704 5711 5714 5719 5723 5727 5725 5728 5729 5733 5736 5738 5740 5744 5748 5750 5752 5752 5753 5754 5754 5753 5754 5754 5754 5754 5753 5753 5754 5753 5752 5750
5610 5621 5628 5638 5646 5652 5658 5671 5677 5681 5687 5690 5698 5703 5707 5711 5713 5717 5720 5719 5725 5727 5729 5733 5736 5738 5742 5745 5746 5747 5748 5748 5748 5749 5749 5748 5748 5748 5747 5745 5744 5743 5741 5739
5602 5613 5619 5623 5634 5643 5651 5660 5669 5679 5682 5686 5694 5696 5701 5703 5705 5714 5717 5716 5719 5721 5719 5725 5728 5730 5735 5738 5740 5740 5741 5742 5742 5742 5744 5742 5741 5740 5738 5736 5735 5733 5732 5731
5597 5603 5612 5622 5629 5638 5642 5654 5662 5669 5677 5681 5689 5691 5692 5695 5700 5703 5708 5712 5708 5703 5706 5721 5725 5725 5724 5727 5730 5733 5733 5734 5736 5735 5734 5734 5733 5731 5729 5728 5726 5723 5722 5719
5593 5597 5607 5616 5627 5634 5640 5646 5655 5664 5671 5676 5681 5686 5688 5691 5696 5699 5705 5705 5704 5676 5701 5709 5716 5718 5720 5723 5725 5725 5725 5725 5725 5725 5724 5724 5722 5719 5717 5716 5714 5712 5710 5707
5586 5593 5604 5613 5621 5629 5637 5644 5650 5658 5663 5673 5675 5679 5683 5686 5691 5695 5696 5697 5697 5692 5701 5704 5710 5713 5718 5720 5718 5715 5713 5714 5714 5713 5712 5711 5710 5709 5707 5705 5703 5701 5698 5695
5582 5591 5600 5610 5622 5628 5634 5641 5646 5654 5661 5663 5671 5675 5677 5683 5687 5690 5691 5693 5691 5690 5696 5698 5705 5710 5710 5710 5709 5706 5705 5704 5704 5702 5701 5700 5698 5697 5695 5693 5691 5687 5684 5681
5581 5590 5601 5609 5618 5624 5631 5637 5645 5649 5654 5659 5665 5671 5674 5676 5678 5683 5689 5691 5691 5689 5694 5695 5699 5702 5700 5699 5698 5697 5696 5695 5693 5692 5691 5689 5689 5687 5684 5682 5679 5676 5673 5670
5580 5590 5598 5606 5613 5620 5629 5636 5638 5645 5651 5658 5662 5665 5670 5671 5672 5670 5676 5682 5683 5685 5693 5695 5695 5693 5692 5693 5692 5689 5687 5687 5686 5684 5682 5680 5678 5675 5673 5671 5668 5665 5662 5658
5580 5588 5594 5601 5606 5613 5625 5626 5635 5642 5646 5651 5655 5660 5662 5664 5669 5673 5675 5674 5678 5684 5688 5690 5689 5686 5684 5682 5680 5680 5680 5678 5676 5674 5671 5669 5667 5664 5662 5660 5657 5653 5650 5647
5579 5583 5591 5601 5603 5616 5619 5614 5624 5637 5637 5642 5649 5655 5659 5664 5667 5670 5672 5675 5678 5679 5677 5678 5678 5677 5676 5674 5672 5671 5670 5667 5664 5662 5660 5657 5655 5653 5650 5648 5645 5642 5640 5637
5578 5585 5594 5601 5605 5607 5618 5625 5629 5633 5639 5644 5646 5650 5655 5661 5665 5668 5670 5672 5672 5672 5671 5670 5669 5668 5666 5665 5664 5662 5659 5657 5654 5651 5649 5646 5644 5643 5641 5638 5635 5633 5630 5627
5571 5581 5591 5600 5605 5611 5617 5622 5629 5634 5640 5643 5648 5651 5655 5658 5660 5662 5664 5665 5664 5664 5664 5661 5659 5658 5658 5656 5654 5652 5650 5647 5644 5641 5639 5636 5634 5632 5631 5629 5626 5623 5621 5619
5574 5584 5592 5601 5606 5613 5616 5621 5626 5633 5640 5643 5646 5648 5650 5652 5655 5658 5658 5657 5657 5657 5657 5657 5654 5652 5649 5647 5645 5643 5641 5638 5634 5631 5628 5625 5623 5621 5620 5619 5616 5615 5614 5613
5579 5587 5593 5602 5608 5612 5617 5622 5628 5633 5639 5642 5643 5645 5647 5649 5651 5652 5652 5652 5651 5651 5650 5648 5647 5645 5642 5640 5638 5635 5631 5627 5623 5620 5617 5615 5612 5611 5610 5609 5608 5608 5608 5606
5582 5588 5594 5603 5607 5612 5617 5622 5626 5630 5633 5635 5639 5641 5643 5645 5645 5646 5646 5646 5644 5643 5641 5640 5638 5637 5635 5632 5629 5625 5621 5616 5613 5610 5607 5605 5602 5601 5600 5600 5602 5602 5602 5599
5583 5588 5594 5601 5606 5611 5616 5619 5623 5626 5630 5633 5636 5638 5639 5640 5639 5640 5640 5639 5638 5637 5635 5632 5630 5628 5625 5623 5620 5615 5612 5608 5604 5602 5600 5598 5597 5595 5594 5595 5597 5597 5596 5594
5586 5590 5596 5600 5605 5610 5614 5618 5621 5624 5627 5629 5631 5634 5635 5635 5634 5635 5635 5634 5633 5631 5628 5625 5622 5620 5618 5615 5612 5608 5604 5601 5599 5597 5596 5594 5592 5591 5591 5592 5594 5594 5592 5588
Wind_Speed
46 47 46 42 40 36 35 35 34 31 26 31 37 40 40 43 43 45 45 47 46 45 46 47 50 48 51 53 53 55 57 56 58 55 50 48 44 42 41 40 50 50 52 53
49 51 42 37 39 37 34 34 35 27 15 21 26 34 30 33 36 39 42 46 47 44 45 47 47 48 50 54 56 57 59 56 54 52 49 46 44 46 45 47 51 50 51 45
46 39 37 36 38 40 39 38 33 32 16 16 27 28 33 25 20 26 32 39 42 39 39 41 45 44 48 52 54 57 57 58 58 55 51 50 45 36 43 46 51 52 52 59
39 37 39 37 38 40 40 36 29 29 27 24 32 38 32 11 11 20 26 28 29 31 32 34 36 37 37 39 45 48 51 53 56 44 56 49 43 42 34 48 53 50 58 61
45 38 40 37 37 38 37 31 32 35 27 31 40 38 24 21 15 21 26 26 27 30 33 33 31 30 30 34 40 42 43 37 38 38 41 43 44 49 47 48 47 54 58 57
36 35 37 33 36 35 30 29 33 38 30 36 36 35 25 18 15 13 18 19 23 29 29 30 27 26 30 27 27 23 21 23 24 22 23 28 32 34 38 41 47 43 47 50
38 40 35 34 35 30 32 34 30 34 45 46 41 39 35 19 13 20 29 25 19 23 25 24 21 22 14 14 15 13 18 18 18 21 22 25 29 31 35 35 20 21 30 34
34 40 38 37 39 35 38 39 42 41 36 31 31 34 22 28 24 23 21 13 20 19 16 19 20 16 20 15 18 19 18 14 18 21 21 23 26 28 27 27 25 25 27 29
34 35 34 38 40 37 37 44 38 30 21 20 19 13 17 18 22 24 27 20 21 24 20 21 22 21 20 21 21 19 16 16 19 24 25 26 27 27 28 30 31 32 34 37
35 31 35 34 40 40 42 33 40 38 35 31 26 20 29 27 34 31 26 24 26 25 28 26 24 23 23 19 21 18 21 24 27 27 27 30 32 33 34 34 37 39 42 44
36 39 39 44 43 39 42 39 35 34 39 32 21 34 30 36 36 34 32 31 28 34 39 27 28 25 21 20 24 26 27 27 29 31 30 33 35 39 40 41 45 47 49 50
32 45 40 38 46 45 44 36 36 36 40 32 26 31 36 39 37 41 35 28 33 44 39 33 32 27 28 29 28 28 32 33 34 36 38 40 41 42 44 46 49 52 54 54
42 45 41 44 40 42 46 46 40 36 37 39 33 33 30 34 39 32 28 26 31 34 30 23 26 31 31 31 30 33 36 38 40 40 40 42 42 43 43 44 46 48 50 51
42 46 42 34 41 48 38 38 43 38 38 37 38 31 36 33 29 34 33 34 42 35 16 23 11 23 19 23 30 36 38 38 38 40 41 42 42 44 47 49 49 52 52 51
44 38 38 34 36 38 35 34 45 39 34 29 37 35 38 37 40 26 25 30 32 36 25 24 15 17 26 29 30 30 34 39 42 44 46 47 47 47 48 49 51 50 50 51
44 34 30 29 40 36 31 35 37 35 36 32 33 32 33 34 37 42 44 41 42 47 38 35 30 23 30 30 29 28 30 33 37 40 43 44 43 45 48 50 49 48 48 49
37 33 31 34 41 36 32 42 40 35 38 34 31 37 40 36 34 32 28 25 29 27 30 24 25 26 32 29 30 31 34 37 39 41 42 44 46 46 47 46 46 47 47 47
32 30 35 42 30 46 40 42 40 34 36 28 27 25 13 14 19 26 25 10 9 7 20 24 26 29 31 34 34 35 38 40 41 42 44 45 44 44 44 44 45 46 46 47
37 40 38 40 21 33 36 21 22 27 17 18 25 12 19 15 13 15 18 21 19 27 30 28 29 29 32 35 36 38 40 41 40 41 41 41 41 41 41 41 41 43 43 43
42 34 34 35 11 30 26 29 29 26 22 16 22 20 20 17 19 22 22 23 28 31 31 31 31 32 33 36 38 39 38 37 38 39 39 38 38 37 37 39 40 42 42 41
50 32 32 23 27 23 19 29 23 23 24 23 24 21 21 22 21 20 22 26 29 31 32 34 36 38 37 36 34 33 34 37 40 41 41 41 40 40 39 40 40 40 38 33
29 33 31 30 21 16 22 26 26 21 14 16 18 22 25 25 23 23 25 27 29 31 33 34 35 36 36 34 33 35 37 39 40 40 40 39 39 39 39 38 39 35 28 23
27 24 26 26 25 18 14 17 20 18 17 18 20 23 24 24 23 24 26 26 27 29 31 32 31 31 33 34 34 37 39 41 40 37 35 34 34 36 36 34 30 23 19 22
31 29 27 29 26 18 18 18 20 22 21 21 20 19 19 19 20 21 22 23 25 26 26 28 29 30 31 31 34 37 38 32 31 32 33 33 31 27 24 20 17 17 18 21
27 29 30 34 20 16 17 16 17 15 13 12 14 16 18 19 18 19 19 19 21 24 26 27 29 29 30 31 34 32 31 31 29 26 21 19 22 19 13 12 13 11 14 18
16 18 17 21 19 20 17 14 12 12 11 12 13 15 16 17 18 19 19 20 20 22 24 26 27 27 28 29 28 29 28 24 18 20 17 18 16 14 4 3 4 7 14 19
Wind_Direction
238 241 243 244 242 239 239 236 240 242 239 239 241 241 243 239 243 245 247 249 248 245 248 248 247 251 254 258 259 261 262 263 267 268 268 264 267 261 264 263 280 283 279 280
237 238 241 238 237 233 232 232 233 217 170 240 252 248 253 255 242 245 245 247 249 248 250 250 250 248 250 257 262 265 267 268 269 267 269 269 264 263 260 269 268 285 284 281
242 243 244 238 233 228 225 225 222 224 193 220 239 235 246 255 247 243 238 242 248 248 248 251 251 251 251 254 258 263 267 269 270 272 269 266 261 261 264 254 258 266 266 271
238 233 233 232 227 226 225 220 214 191 196 204 225 230 240 214 228 243 252 248 253 253 253 251 254 252 250 252 256 262 268 271 273 277 273 283 278 279 262 253 259 264 269 271
241 233 232 227 226 224 223 214 197 188 205 206 205 231 236 202 225 237 242 248 251 254 257 257 261 263 261 252 253 258 265 277 285 277 282 281 278 277 274 272 267 262 269 272
227 225 220 222 218 218 220 203 195 195 206 213 207 221 203 199 218 233 250 259 253 252 253 254 255 258 251 248 248 247 255 265 269 272 285 286 285 290 290 287 273 273 270 272
214 214 210 210 217 203 205 181 201 213 212 220 217 228 240 216 237 236 225 240 254 246 253 256 257 247 228 230 244 261 263 266 281 293 287 286 283 278 285 295 281 262 259 264
223 212 205 206 211 205 192 192 202 205 210 222 226 228 242 215 220 258 241 232 249 255 271 273 261 250 233 242 257 252 255 265 275 277 280 277 278 281 284 280 281 281 282 278
215 215 204 197 194 185 196 205 201 207 208 222 213 206 191 194 236 245 258 206 233 264 263 266 271 269 238 241 239 239 246 255 261 264 263 266 269 273 280 283 283 282 283 286
204 205 194 196 190 195 205 206 202 202 207 209 206 201 216 215 225 228 198 221 237 264 263 264 263 259 256 242 238 249 247 246 255 261 265 269 275 276 275 275 277 279 282 285
189 199 194 190 187 201 193 192 203 205 212 221 201 208 207 211 217 230 214 214 235 257 257 242 253 260 250 242 239 244 255 262 268 271 273 275 276 278 280 282 283 284 284 284
202 198 202 196 196 193 188 199 187 202 206 220 210 216 228 214 230 217 218 218 242 243 236 240 250 251 245 251 256 261 265 268 271 273 274 274 273 272 273 275 278 280 281 281
190 199 199 201 200 196 202 201 208 207 204 208 219 226 236 232 234 220 216 242 238 170 205 209 224 244 252 264 271 271 269 268 267 271 273 273 274 277 279 279 279 281 283 285
186 195 204 207 205 201 204 201 201 212 210 205 218 227 236 238 243 243 240 229 239 254 266 231 266 245 248 267 271 270 273 273 274 273 273 274 276 277 277 280 285 286 286 285
189 191 197 189 193 197 193 200 200 208 213 223 208 221 234 244 241 244 243 250 272 274 247 269 304 240 282 294 281 275 276 277 276 274 275 276 277 280 283 283 288 287 288 288
193 187 194 188 190 196 190 178 179 211 221 222 230 233 242 248 241 240 242 254 263 269 272 285 298 292 268 270 277 287 287 283 279 278 277 279 282 281 282 284 284 285 285 284
197 199 197 196 195 190 196 186 191 207 216 222 231 243 240 248 236 243 243 265 267 272 268 280 282 261 270 282 285 284 284 284 282 280 280 280 279 279 280 282 283 284 285 287
190 190 197 196 218 201 187 195 196 202 209 236 235 217 214 229 229 239 241 252 288 265 273 274 271 272 279 280 284 286 284 282 280 280 278 279 280 281 282 283 283 285 286 287
187 190 192 193 184 174 195 150 163 187 183 205 225 223 219 230 238 253 256 269 272 286 285 283 278 278 277 281 284 285 284 283 283 281 280 280 281 283 284 284 284 285 286 289
186 181 188 181 154 177 185 182 192 198 212 210 230 258 256 240 258 280 287 280 276 272 273 282 283 283 285 285 284 284 284 285 286 285 285 285 285 284 283 282 285 286 287 287
186 181 180 194 175 179 177 178 197 207 218 225 236 255 258 263 259 257 257 261 270 279 283 285 287 286 286 285 284 283 284 286 286 284 282 282 281 281 282 282 284 285 287 286
167 179 179 184 171 185 190 191 204 213 195 204 227 240 245 252 262 265 266 267 271 275 277 279 281 282 283 284 285 284 286 289 290 288 284 282 281 281 281 281 282 285 284 283
193 190 192 183 166 149 168 193 201 210 206 209 222 235 247 254 258 260 262 265 270 273 275 276 278 280 282 284 286 288 290 292 292 289 285 283 282 282 279 279 281 277 278 287
192 197 195 191 174 184 185 194 208 213 215 219 227 236 240 246 251 259 264 267 270 274 279 281 282 281 282 285 291 296 297 295 294 291 288 286 285 282 275 270 263 275 285 293
165 177 177 186 184 188 184 197 208 217 222 225 225 232 239 244 254 263 269 275 280 283 284 285 287 289 290 293 298 300 301 301 298 296 296 298 287 285 276 268 274 280 297 312
150 158 158 164 169 180 189 202 200 204 210 223 234 242 251 257 260 264 271 275 283 288 287 288 290 291 295 300 302 305 304 300 296 301 297 294 309 297 266 293 308 311 313 304